Regional Weather Roundup
Issued by NWS

Home | Current Version | Previous Version | Graphics & Text | Print | Product List | Glossary On
Versions: 1 2 3 4 5 6 7 8 9 10 11 12 13 14 15 16 17 18 19 20 21 22 23 24 25 26 27 28 29 30 31 32 33 34 35 36 37 38 39 40 41 42 43 44 45 46 47 48 49 50
000
ASUS45 KTFX 310119
RWRMT
MONTANA HOURLY WEATHER ROUNDUP
NATIONAL WEATHER SERVICE GREAT FALLS MT
719 PM MDT SAT AUG 30 2014

NOTE: "FAIR" INDICATES FEW OR NO CLOUDS BELOW 12000 FEET WITH NO
SIGNIFICANT WEATHER AND/OR OBSTRUCTIONS TO VISIBILITY.

* THESE STATIONS ARE NOT UNDER NWS QUALITY CONTROL. THEY DO NOT
   REPORT WEATHER SUCH AS PRECIPITATION OR FOG.

MTZ001>007-043-310200-
WEST OF THE DIVIDE
CITY           SKY/WX    TMP DP  RH WIND       PRES   REMARKS
KALISPELL      CLOUDY    70  34  27 W14       29.79R
MISSOULA       CLOUDY    70  37  30 N/A       29.83S
BUTTE          CLOUDY    57  46  67 CALM      29.91R
MULLAN PASS    MOCLDY    52  39  61 VRB6      29.94F
* LINCOLN      N/A       67  38  35 SW5G17     N/A
* LOOKOUT PASS N/A       59  43  56 S1G6       N/A
* POLSON       N/A       65  36  34 W2G8       N/A
* RONAN APT    CLOUDY    70  41  35 N/A        N/A
* SEELEY LAKE  N/A       65  37  36 W4G17      N/A
* THOMP F APT  CLOUDY    51  43  74 NE5G16     N/A
$$

MTZ008-052>055-310200-
SOUTHWEST MONTANA
CITY           SKY/WX    TMP DP  RH WIND       PRES   REMARKS
BOZEMAN        LGT RAIN  55  52  90 S6        29.92R
DILLON         TSTM      55  50  83 SW13      29.91R
W YELLOWSTONE  RAIN      45  43  93 SE8       30.02S VSB 1 3/4
* THREE FORKS  CLOUDY    57  39  51 SE10       N/A
* BOULDER HILL N/A       55  44  67 SW12G17    N/A
* MONIDA PASS  N/A       45  45 100 S8         N/A
* RAYNOLDS PAS N/A       45  44  96 NW6        N/A
* WHITEHALL    N/A       59  50  72 SE2G10     N/A
* WISE RIVER   N/A       62  36  38 W13G20     N/A
$$

MTZ009>010-012-014-046-048-049-054-310200-
EAST SLOPES AND CENTRAL MONTANA
CITY           SKY/WX    TMP DP  RH WIND       PRES   REMARKS
CUT BANK       CLOUDY    64  37  37 W12       29.77R
GREAT FALLS    PTCLDY    72  34  25 W15       29.75R
HELENA         MOCLDY    72  39  30 W10       29.81S
MALMSTROM AFB  PTCLDY    72  34  25 W16       29.76S
* CONRAD       CLOUDY    70  36  29 W9         N/A
* EAST GLACIER N/A       60  38  44 NW16G27    N/A
* MONARCH      N/A       59  42  53 S8         N/A
* PENDROY      N/A       64  33  31 NW12       N/A
* ROGERS PASS  N/A       61  35  38 SE7G14     N/A
* SAINT MARY   N/A       63  36  37 SW6G16     N/A
* SWEET GRASS  N/A       67  35  31 W13        N/A
* WHITE SULPH  N/A       55  47  75 S6G13      N/A
$$

MTZ011-013-016-021-035-040-045-047-050-051-310200-
NORTH CENTRAL MONTANA
CITY           SKY/WX    TMP DP  RH WIND       PRES   REMARKS
HAVRE          PTCLDY    73  46  38 NE10      29.70R
LEWISTOWN      CLOUDY    63  46  54 SW15G26   29.79S
* CHINOOK      PTCLDY    72  50  46 N7        29.69S
* FORT BENTON  PTCLDY    70  45  41 N3        29.73R
* CHESTER      N/A       72  32  23 W12G20     N/A
* DENTON       N/A       71  38  30 W12        N/A
* GEYSER       N/A       66  38  36 SW5G11     N/A
* JUDITH GAP   N/A       53  50  90 N16G26     N/A
* LOMA         N/A       75  38  26 W11G17     N/A
$$

MTZ017>020-022>027-061-062-310200-
NORTHEAST MONTANA
CITY           SKY/WX    TMP DP  RH WIND       PRES   REMARKS
GLASGOW        CLOUDY    66  57  73 SE8       29.70R
GLENDIVE       CLOUDY    64  57  78 W6        29.73S
JORDAN         CLOUDY    70  52  53 S5        29.73S
SIDNEY         CLOUDY    64  59  84 N7        29.71S
WOLF POINT     MOCLDY    66  57  73 CALM      29.70F
* BEAVER HILL  N/A       66  60  81 NW6        N/A
* CIRCLE       N/A       67  59  76 N/A        N/A
* LINDSAY DVD  N/A       63  56  78 NW6        N/A
* NAVAJO       N/A       62  56  81 SW2        N/A
$$

MTZ028>042-056>058-310200-
SOUTHCENTRAL AND SOUTHEAST MONTANA
CITY           SKY/WX    TMP DP  RH WIND       PRES   REMARKS
BAKER          CLOUDY    66  57  73 NW17G25   29.71F
BILLINGS       LGT RAIN  64  52  65 W10       29.81S
LIVINGSTON     CLOUDY    55  48  77 NW3       29.91R
MILES CITY     CLOUDY    66  61  84 CALM      29.74F
* LAUREL APT   CLOUDY    64  46  52 W7         N/A
* ROUNDUP APT  CLOUDY    66  52  61 N/A        N/A
* ALZADA       N/A       70  55  59 W20G27     N/A
* HYSHAM       N/A       64  53  68 W2         N/A
* LAME DEER    N/A       57  56  96 N/A        N/A
* REED POINT   N/A       62  49  63 W14        N/A
* ROSCOE HILL  N/A       58  38  47 NE5        N/A
$$

REGIONAL REPORTS...DAKOTAS
CITY           SKY/WX    TMP DP  RH WIND       PRES   REMARKS
WILLISTON      LGT RAIN  63  61  93 NE10      29.69S VSB 3
DICKINSON      MOCLDY    68  57  68 SE10      29.65F
BEACH          N/A       64  63  97 NW8       29.72R
CROSBY         CLOUDY    61  61 100 NE3       29.71S
TIOGA          CLOUDY    63  63 100 NW15G20   29.73R
WATFORD CITY   MOCLDY    64  61  90 NW10      29.66S
BISMARCK       PTCLDY    70  57  64 SE10      29.72F
GRAND FORKS    PTCLDY    70  55  59 SE5       29.79F
FARGO          CLOUDY    68  61  78 S5        29.81F
BUFFALO SD     CLOUDY    73  61  66 E20       29.50F
RAPID CITY     TSTM      70  57  64 S9        29.66R
$$

REGIONAL REPORTS...WYOMING/IDAHO/WASHINGTON
CITY           SKY/WX    TMP DP  RH WIND       PRES   REMARKS
GILLETTE       CLOUDY    66  52  61 NW28G39   29.82R
SHERIDAN       CLOUDY    57  55  93 NE6       29.81F
CODY           CLOUDY   N/A N/A N/A N/A        N/A
YELLOWSTONE LA MOCLDY    45  39  80 NW8       30.08S
SALMON         CLOUDY    59  54  84 S12       29.88R
MULLAN PASS    MOCLDY    52  39  61 VRB6      29.94S
SAND POINT     CLOUDY    68  43  40 SW6       29.78F
SPOKANE        CLOUDY    72  43  35 W16       29.82F
$$

REGIONAL REPORTS...ALBERTA
CITY           SKY/WX    TMP DP  RH WIND       PRES   REMARKS
CALGARY        PTCLDY    66  36  33 NW8       29.70R
LETHBRIDGE     CLOUDY    66  37  34 W13       29.70S
MEDICINE HAT   LGT RAIN  64  50  61 CALM      29.70F
EDMONTON       MOCLDY    63  41  45 W7        29.66S
WATERTON GATE  N/A       63  36  37 SW9        N/A
CARDSTON       N/A       66  37  34 W12        N/A
MILK RIVER     N/A       64  48  56 E3         N/A
$$

REGIONAL REPORTS...SASKATCHEWAN
CITY           SKY/WX    TMP DP  RH WIND       PRES   REMARKS
SWIFT CURRENT  CLEAR     68  45  44 NW7       29.68R
REGINA         MOCLDY    63 N/A N/A S6        29.66F
VAL MARIE      N/A       63  55  75 SE7        N/A
ASSINIBOIA     N/A       66  54  65 S5         N/A
CORONACH       N/A       61  57  87 S3         N/A

$$



USA.gov is the U.S. government's official web portal to all federal, state and local government web resources and services.